Wind_Speed
20 20 19 20 20 19 19 19 19 19 19 19 19 19 19 19 18 18 17 16 17 17 17 17 17 17 18 18 18 18 19 19 19 20 19 20 20 20 21 22 22 22 22
22 21 21 21 21 21 20 20 20 20 20 19 19 18 19 18 18 18 17 17 17 17 17 17 17 17 18 18 18 18 18 19 19 19 19 19 19 20 20 21 22 22 22
22 22 22 22 22 21 21 21 21 20 20 19 19 19 19 18 18 17 18 17 17 16 16 16 16 16 17 18 18 18 19 19 19 19 19 19 20 21 21 21 21 21 21
23 23 22 22 22 23 22 21 21 20 19 18 18 19 19 18 18 17 17 17 16 16 16 16 16 16 17 18 18 18 18 19 19 19 20 20 20 20 20 20 20 21 20
23 23 22 22 22 22 22 21 20 19 18 18 18 18 18 18 18 18 17 17 17 17 17 17 16 17 17 18 18 18 18 19 20 20 19 19 19 19 20 20 20 20 21
22 22 22 22 22 21 21 20 19 18 18 17 17 17 17 17 17 18 18 18 18 18 18 17 17 17 17 18 17 18 18 19 20 20 20 20 20 19 19 19 20 20 21
21 21 21 22 22 21 21 19 19 18 18 17 17 17 17 17 17 17 18 18 18 18 18 18 18 17 18 18 18 18 18 19 20 20 21 21 21 20 21 21 21 21 22
21 21 21 21 21 21 20 20 20 19 19 18 18 18 17 17 17 18 17 18 18 17 17 17 17 17 18 18 18 18 19 19 19 19 20 21 22 22 22 22 22 23 23
22 21 21 21 21 21 21 21 21 21 20 19 19 18 18 18 18 18 18 18 17 18 18 18 18 18 18 18 18 18 18 18 19 19 19 19 20 21 21 22 23 24 25
22 22 22 22 22 22 22 22 21 21 21 20 20 19 19 18 18 18 18 18 18 18 18 18 17 17 17 18 18 18 17 17 18 18 19 19 21 21 22 23 24 25 26
23 23 23 23 23 22 22 22 22 22 21 21 20 20 19 19 18 18 18 18 18 18 18 18 17 16 16 17 17 17 17 18 19 20 19 20 21 22 23 23 24 24 24
24 24 23 23 23 23 22 22 22 22 22 21 21 21 20 19 19 19 19 19 19 19 18 17 17 17 17 16 16 17 18 19 20 20 20 21 22 22 23 24 24 24 24
24 24 24 23 23 23 22 22 21 21 22 22 21 21 21 20 20 20 19 19 19 19 18 17 17 17 17 17 17 17 18 19 20 20 21 21 22 23 23 22 22 22 22
25 25 24 24 23 23 22 22 21 21 21 21 20 20 20 20 20 19 19 19 19 19 18 18 17 17 17 17 18 18 19 19 19 19 20 21 21 21 21 21 21 21 22
25 25 24 24 24 23 22 22 21 21 21 21 20 20 20 19 19 19 20 20 19 19 18 18 18 17 17 17 18 18 19 19 19 20 20 21 21 21 21 21 21 22 23
25 24 24 24 24 23 23 22 22 21 21 21 21 20 19 19 19 19 20 20 20 20 19 18 18 18 18 18 18 18 19 19 19 20 21 21 21 21 21 21 21 21 21
25 24 24 24 24 23 23 23 22 22 22 21 20 20 20 20 20 21 21 20 20 20 19 19 18 19 18 18 18 18 18 18 19 19 19 20 20 20 21 21 20 20 20
24 24 23 23 23 23 23 22 22 22 22 22 21 20 21 21 21 21 20 20 20 20 19 18 18 19 19 19 18 18 18 18 18 19 19 19 20 20 20 20 20 20 20
23 22 22 23 22 22 22 22 22 22 23 22 21 21 21 21 21 20 20 20 20 20 19 19 18 18 18 18 18 19 19 18 19 19 19 19 20 20 19 18 18 18 19
23 23 22 22 22 21 21 21 21 22 22 22 21 21 21 21 21 21 21 21 20 20 20 19 19 18 18 18 18 18 19 19 20 20 19 19 19 19 18 17 17 18 18
22 22 22 22 21 21 21 21 21 21 21 22 22 21 21 21 20 20 20 20 20 20 20 19 19 19 19 18 18 18 18 19 19 19 19 18 18 18 17 16 17 17 17
21 20 20 20 21 21 21 22 21 21 22 22 21 21 21 21 20 19 19 19 20 20 20 20 20 19 19 19 19 19 18 19 19 19 19 18 18 17 17 17 17 16 17
19 19 20 20 20 20 20 21 21 22 22 22 22 22 22 22 22 21 20 20 19 20 20 20 20 20 20 19 19 19 19 19 19 19 19 19 18 18 18 17 17 16 17
18 19 19 20 20 21 21 21 22 22 22 22 22 23 23 23 23 22 21 21 20 20 20 20 20 20 21 21 20 20 20 20 20 19 19 20 19 18 18 17 18 18 18
20 20 20 21 21 22 23 23 23 23 23 23 22 22 23 23 23 23 23 23 23 22 22 22 22 21 21 21 21 21 21 21 21 20 20 20 20 20 19 19 19 19 19
20 21 22 22 23 23 23 24 24 25 24 23 23 24 24 25 25 24 24 24 24 24 23 23 23 23 22 22 21 21 21 21 21 21 20 20 20 19 19 19 19 19 19
Wind_Direction
278 279 283 287 290 293 293 292 294 294 294 293 290 289 289 288 288 285 283 283 282 280 278 275 274 271 270 269 268 266 267 268 268 268 268 267 264 263 264 262 263 266 267
275 278 282 285 287 289 290 290 293 294 293 290 288 289 290 288 286 284 281 282 280 279 277 276 276 272 271 270 268 266 267 267 267 266 266 266 265 266 266 265 265 266 268
274 276 278 281 285 287 289 289 291 292 291 288 286 286 288 287 285 283 280 281 281 279 278 276 274 272 272 270 267 266 267 268 268 268 268 267 267 268 267 266 265 265 267
273 274 276 279 282 284 286 289 290 290 289 287 285 285 285 283 282 280 280 278 281 279 279 276 271 270 273 273 269 268 269 270 270 270 270 269 269 269 268 266 263 264 265
271 272 275 277 279 280 284 287 287 287 287 286 285 284 282 281 280 279 278 277 280 281 280 279 273 271 274 274 271 269 269 269 271 273 272 270 272 270 269 267 265 264 264
270 270 272 274 276 278 280 282 282 283 283 283 283 284 282 281 280 279 279 280 280 278 278 276 274 274 275 277 273 269 270 271 271 271 271 271 272 271 270 267 267 267 266
269 270 272 273 274 276 277 279 280 278 279 281 282 283 282 281 280 279 280 281 280 279 280 278 275 275 276 278 276 274 272 271 271 273 270 272 272 273 270 269 270 270 269
268 270 275 275 273 274 276 276 277 277 278 280 281 282 282 280 279 280 280 283 284 282 280 280 278 276 276 276 276 276 274 272 273 273 273 271 272 273 272 270 269 268 269
268 269 273 276 275 273 273 274 275 275 276 278 279 281 281 279 279 280 281 282 283 283 281 281 279 278 277 276 277 279 278 276 277 278 275 273 275 275 273 271 270 269 271
269 271 272 273 274 274 272 271 272 274 274 275 278 280 280 279 279 280 280 281 282 282 283 284 282 280 279 279 280 279 279 279 281 282 279 278 278 277 276 276 275 274 272
269 270 271 270 271 273 271 270 271 274 273 274 275 276 275 276 277 278 279 280 281 282 283 283 282 281 281 280 279 279 280 281 282 284 284 284 283 282 281 279 278 277 275
270 270 270 270 270 270 270 271 273 273 272 273 273 273 272 273 275 276 278 279 280 281 281 280 279 280 280 279 280 281 281 282 284 285 285 287 287 286 285 282 280 278 275
269 268 268 269 269 269 269 270 272 274 274 274 274 273 272 272 273 273 274 275 276 277 278 279 278 280 279 277 278 281 283 283 285 285 285 286 288 289 287 285 283 280 278
268 266 265 266 267 267 267 268 271 273 275 276 276 273 271 271 271 271 273 273 273 274 275 277 278 279 281 280 280 282 284 285 287 288 288 286 285 286 287 286 284 282 281
265 264 263 264 265 266 266 268 269 271 272 274 274 273 270 269 269 270 271 272 273 273 273 275 277 277 277 280 283 285 287 289 290 290 289 287 285 285 286 286 285 283 281
263 264 264 264 264 263 264 265 266 268 269 271 272 271 269 270 271 273 274 272 272 273 273 275 277 279 279 280 282 285 288 290 292 293 291 290 288 287 288 288 287 287 283
261 262 264 263 262 262 263 264 264 264 266 269 270 270 270 270 270 272 273 272 271 272 273 275 278 279 279 282 284 286 289 293 295 295 295 294 291 290 291 292 291 289 285
262 261 262 261 261 261 261 262 263 264 266 269 269 270 271 272 272 273 273 271 271 272 273 275 278 279 278 279 281 285 290 294 296 298 298 297 294 293 294 294 291 289 287
260 260 261 260 260 261 261 262 262 262 264 268 268 270 271 272 274 274 273 272 271 271 271 272 274 277 278 278 280 283 288 292 296 298 299 300 299 297 297 295 292 291 290
261 261 261 260 260 260 261 263 263 262 263 266 269 269 272 274 275 275 274 273 271 270 269 269 271 274 277 279 281 284 288 292 295 296 298 300 300 298 297 297 297 296 295
261 260 259 258 258 259 259 260 262 264 266 267 267 268 272 274 275 274 274 273 271 269 268 267 269 272 275 278 281 283 287 290 294 296 296 297 299 298 295 295 297 296 295
260 258 257 258 259 260 258 258 258 262 266 267 267 269 271 273 273 273 273 271 269 268 267 267 267 270 273 277 280 281 284 289 292 295 297 296 295 294 294 296 296 296 296
260 259 258 259 260 261 261 260 261 264 265 265 266 268 270 271 271 271 270 270 271 270 269 268 267 269 273 275 277 280 284 289 292 292 295 297 295 291 291 293 294 293 295
261 261 262 260 259 261 262 262 264 266 266 265 267 269 269 268 268 268 268 268 268 269 269 268 267 268 271 274 275 277 281 285 289 291 292 294 294 293 290 289 290 291 291
261 262 264 264 263 264 265 266 265 265 267 268 269 270 270 268 267 267 267 267 267 268 268 267 266 268 272 275 276 277 280 283 286 288 291 292 292 291 291 290 290 289 289
265 265 266 266 267 268 268 268 267 266 266 269 269 270 270 269 268 267 267 266 265 266 267 267 267 268 271 273 276 277 279 281 283 286 289 291 291 289 290 290 289 288 288
Height
5835 5834 5833 5832 5830 5828 5826 5824 5822 5820 5818 5815 5814 5812 5811 5810 5808 5807 5805 5803 5801 5800 5799 5799 5798 5798 5798 5798 5797 5797 5797 5796 5796 5796 5795 5794 5793 5793 5794 5795 5796 5797 5798
5829 5828 5828 5826 5825 5823 5821 5819 5817 5814 5812 5809 5808 5807 5806 5804 5803 5802 5800 5798 5797 5795 5794 5794 5794 5793 5793 5793 5792 5792 5792 5791 5791 5791 5790 5789 5789 5789 5789 5790 5790 5791 5791
5822 5822 5822 5821 5819 5818 5816 5814 5811 5809 5806 5804 5802 5801 5800 5799 5798 5796 5795 5794 5792 5791 5790 5789 5789 5788 5788 5788 5787 5787 5787 5786 5786 5786 5785 5785 5784 5784 5784 5785 5785 5785 5785
5816 5816 5815 5815 5814 5812 5810 5808 5806 5804 5801 5799 5797 5796 5795 5793 5792 5791 5790 5789 5787 5786 5785 5784 5784 5784 5783 5783 5782 5782 5782 5781 5781 5781 5780 5780 5779 5779 5779 5779 5779 5780 5780
5809 5809 5809 5808 5807 5806 5804 5803 5801 5799 5797 5795 5793 5791 5789 5787 5786 5785 5784 5783 5782 5781 5780 5779 5779 5779 5778 5778 5777 5777 5776 5776 5776 5775 5775 5774 5774 5774 5774 5773 5773 5773 5774
5803 5802 5802 5802 5801 5800 5798 5797 5796 5794 5792 5790 5788 5786 5784 5782 5781 5780 5779 5778 5777 5776 5775 5774 5774 5773 5773 5772 5772 5771 5771 5770 5770 5769 5769 5769 5769 5769 5768 5768 5768 5768 5768
5796 5796 5795 5795 5794 5793 5792 5791 5790 5789 5787 5785 5783 5781 5779 5778 5776 5775 5774 5773 5772 5771 5770 5769 5768 5768 5767 5767 5766 5766 5765 5765 5764 5764 5763 5763 5763 5763 5762 5762 5762 5762 5762
5789 5789 5789 5788 5788 5787 5786 5785 5784 5783 5782 5780 5778 5776 5775 5773 5772 5771 5770 5768 5767 5766 5765 5764 5763 5762 5762 5761 5761 5760 5759 5759 5758 5758 5757 5757 5757 5756 5755 5755 5755 5755 5755
5782 5782 5782 5782 5781 5780 5780 5779 5778 5777 5776 5774 5773 5771 5770 5768 5767 5766 5765 5764 5762 5761 5760 5759 5758 5757 5757 5756 5755 5754 5754 5753 5752 5752 5751 5750 5750 5749 5748 5748 5748 5748 5748
5776 5776 5775 5775 5774 5773 5773 5772 5771 5770 5769 5768 5767 5766 5764 5763 5762 5761 5760 5759 5758 5756 5755 5754 5753 5752 5751 5750 5749 5749 5748 5748 5747 5746 5745 5744 5743 5743 5742 5741 5740 5740 5740
5768 5768 5768 5767 5767 5766 5766 5765 5764 5763 5762 5761 5761 5760 5758 5758 5757 5756 5754 5753 5752 5751 5750 5749 5748 5747 5746 5745 5744 5743 5743 5742 5741 5740 5739 5738 5737 5736 5735 5734 5733 5732 5731
5760 5760 5760 5759 5759 5759 5758 5758 5757 5756 5756 5755 5754 5753 5752 5751 5751 5750 5749 5748 5747 5746 5744 5743 5743 5742 5741 5740 5739 5738 5737 5736 5735 5734 5733 5732 5731 5729 5728 5726 5725 5724 5723
5752 5752 5752 5752 5752 5751 5751 5751 5750 5749 5748 5748 5747 5746 5746 5745 5744 5743 5743 5742 5741 5740 5739 5738 5737 5736 5735 5734 5734 5733 5732 5731 5729 5728 5726 5725 5724 5722 5720 5718 5717 5716 5715
5744 5744 5744 5744 5744 5744 5744 5743 5743 5742 5742 5741 5740 5740 5739 5738 5738 5737 5736 5736 5735 5734 5733 5732 5731 5730 5730 5729 5728 5727 5726 5725 5723 5722 5720 5718 5717 5715 5714 5712 5710 5709 5708
5736 5736 5736 5736 5736 5736 5736 5736 5736 5736 5735 5734 5734 5733 5733 5732 5731 5731 5730 5729 5729 5728 5727 5727 5726 5725 5724 5723 5723 5722 5721 5719 5717 5716 5714 5712 5710 5709 5707 5706 5704 5702 5701
5728 5728 5728 5728 5728 5728 5729 5729 5729 5729 5728 5728 5727 5727 5726 5726 5725 5725 5724 5723 5723 5722 5722 5721 5720 5720 5719 5718 5717 5716 5715 5713 5712 5710 5708 5706 5704 5703 5701 5699 5697 5695 5694
5719 5720 5720 5720 5721 5721 5721 5722 5722 5722 5722 5721 5721 5720 5720 5720 5719 5718 5718 5717 5717 5716 5716 5716 5715 5714 5714 5713 5712 5711 5709 5708 5706 5704 5702 5700 5698 5696 5694 5692 5691 5689 5688
5712 5712 5712 5713 5713 5713 5714 5714 5714 5715 5715 5715 5715 5714 5714 5713 5712 5712 5711 5711 5710 5710 5710 5709 5709 5709 5708 5707 5706 5705 5704 5703 5701 5699 5697 5695 5692 5690 5688 5686 5685 5683 5682
5705 5705 5705 5705 5706 5706 5707 5707 5707 5708 5708 5708 5708 5708 5707 5706 5705 5705 5704 5704 5704 5704 5703 5703 5703 5703 5702 5702 5701 5700 5699 5697 5696 5694 5692 5689 5687 5685 5682 5680 5679 5677 5676
5698 5698 5698 5698 5699 5699 5700 5700 5701 5701 5701 5701 5701 5701 5700 5699 5699 5698 5698 5698 5698 5697 5697 5697 5697 5697 5697 5696 5695 5694 5693 5692 5690 5688 5686 5684 5681 5679 5677 5675 5674 5672 5670
5691 5691 5691 5692 5692 5693 5694 5694 5694 5694 5694 5694 5694 5694 5694 5693 5693 5692 5692 5691 5691 5691 5691 5691 5691 5691 5691 5690 5690 5689 5688 5686 5684 5682 5680 5678 5676 5674 5672 5670 5668 5667 5665
5684 5684 5685 5685 5686 5686 5687 5687 5687 5687 5688 5688 5688 5687 5687 5687 5686 5686 5686 5685 5685 5685 5685 5685 5685 5685 5685 5685 5684 5683 5682 5681 5679 5677 5675 5673 5671 5669 5667 5665 5663 5662 5660
5678 5678 5679 5679 5680 5680 5680 5680 5681 5681 5681 5681 5681 5680 5680 5680 5680 5680 5680 5679 5679 5679 5678 5679 5679 5679 5679 5678 5678 5677 5676 5675 5673 5672 5670 5668 5665 5664 5662 5660 5658 5657 5655
5672 5672 5673 5673 5674 5674 5674 5674 5674 5674 5673 5673 5673 5673 5673 5673 5673 5673 5673 5673 5673 5672 5672 5672 5672 5673 5673 5672 5672 5671 5670 5669 5667 5666 5664 5662 5660 5658 5656 5655 5653 5652 5650
5666 5666 5666 5667 5667 5667 5667 5667 5666 5666 5666 5666 5665 5665 5666 5665 5666 5666 5666 5666 5666 5666 5665 5666 5666 5666 5666 5666 5665 5665 5664 5663 5661 5660 5658 5656 5654 5652 5651 5649 5647 5646 5644
5660 5660 5660 5660 5660 5659 5659 5659 5658 5658 5658 5658 5658 5658 5658 5658 5658 5658 5657 5658 5658 5658 5658 5658 5659 5659 5659 5659 5658 5658 5657 5656 5655 5653 5651 5650 5648 5646 5645 5643 5642 5640 5639